Waupaca, WI

1:46 PM CST on December 09, 2016 (GMT -0600)
Waupaca Municipal

Weather History for KPCZ - March, 2012

Change the Weather History Date:

Friday, March 30, 2012

  Actual Average Record
Temperature  
Mean Temperature 36 °F -  
Max Temperature 39 °F 48 °F 84 °F (1986)
Min Temperature 33 °F 29 °F 1 °F (1969)
Degree Days  
Heating Degree Days 29    
Moisture  
Dew Point 34 °F    
Average Humidity 89    
Maximum Humidity 93    
Minimum Humidity 75    
Precipitation  
Precipitation 0.69 in - - ()
Sea Level Pressure  
Sea Level Pressure 29.89 in    
Wind  
Wind Speed 7 mph (ENE)    
Max Wind Speed 13 mph    
Max Gust Speed 17 mph    
Visibility 6 miles    
Events Rain    
Averages and records for this station are not official NWS values.
T = Trace of Precipitation, MM = Missing Value Source: NWS Daily Summary

Daily Weather History Graph

Daily Weather History Graph

Search for Another Location

Airport or City:

Trip Planner

Search our weather history database for the weather conditions in past years. The results will help you decide how hot, cold, wet, or windy it might be!

Date:

Astronomy

Mar. 30, 2012 Rise Set
Actual Time 6:39 AM CDT 7:21 PM CDT
Civil Twilight 6:10 AM CDT 7:50 PM CDT
Nautical Twilight 5:36 AM CDT 8:25 PM CDT
Astronomical Twilight 5:00 AM CDT 9:01 PM CDT
Moon 11:35 AM CDT (3/30) 2:08 AM CDT (3/30)
Length of Visible Light 13h 40m
Length of Day
12h 41m
Waxing Crescent, 49% of the Moon is Illuminated
Mar 30
Waxing Crescent
Mar 30
First Quarter
Apr 6
Full
Apr 13
Last Quarter
Apr 21
New

Hourly Weather History & Observations

Time (CDT) Temp. Windchill Dew Point Humidity Pressure Visibility Wind Dir Wind Speed Gust Speed Precip Events Conditions
12:15 AM 33.8 °F 27.0 °F 28.4 °F 81% 29.98 in 10.0 mi East 8.1 mph - N/A   Scattered Clouds
12:35 AM 35.6 °F 29.9 °F 28.4 °F 75% 29.96 in 10.0 mi East 6.9 mph - N/A   Clear
12:55 AM 35.6 °F 29.9 °F 28.4 °F 75% 29.96 in 10.0 mi East 6.9 mph - N/A   Clear
1:15 AM 35.6 °F 28.6 °F 30.2 °F 81% 29.94 in 10.0 mi East 9.2 mph - N/A   Mostly Cloudy
1:35 AM 35.6 °F 30.7 °F 30.2 °F 81% 29.93 in 10.0 mi East 5.8 mph - N/A   Overcast
1:55 AM 35.6 °F 29.9 °F 30.2 °F 81% 29.93 in 10.0 mi East 6.9 mph - N/A   Mostly Cloudy
2:15 AM 35.6 °F 31.7 °F 30.2 °F 81% 29.93 in 10.0 mi ENE 4.6 mph - N/A   Scattered Clouds
2:35 AM 35.6 °F 31.7 °F 32.0 °F 87% 29.92 in 10.0 mi NE 4.6 mph - N/A   Mostly Cloudy
2:55 AM 35.6 °F 30.7 °F 32.0 °F 87% 29.90 in 10.0 mi ENE 5.8 mph - N/A Rain Rain
3:15 AM 35.6 °F 32.8 °F 32.0 °F 87% 29.93 in 3.0 mi NNW 3.5 mph - 0.05 in Rain Rain
3:35 AM 35.6 °F 31.7 °F 32.0 °F 87% 29.93 in 3.0 mi North 4.6 mph - 0.11 in Rain Light Rain
3:55 AM 35.6 °F - 32.0 °F 87% 29.92 in 5.0 mi Calm Calm - 0.14 in Rain Rain
4:15 AM 35.6 °F 31.7 °F 33.8 °F 93% 29.89 in 3.0 mi NE 4.6 mph - 0.05 in Rain Rain
4:35 AM 35.6 °F 29.9 °F 33.8 °F 93% 29.87 in 3.0 mi ENE 6.9 mph - 0.13 in Rain Light Rain
4:55 AM 35.6 °F 29.2 °F 33.8 °F 93% 29.86 in 4.0 mi East 8.1 mph - 0.18 in Rain Rain
5:15 AM 37.4 °F 30.3 °F 33.8 °F 87% 29.86 in 3.0 mi East 10.4 mph - 0.05 in Rain Rain
5:35 AM 37.4 °F 32.8 °F 35.6 °F 93% 29.86 in 3.0 mi East 5.8 mph - 0.11 in Rain Rain
5:55 AM 37.4 °F 30.8 °F 35.6 °F 93% 29.84 in 3.0 mi East 9.2 mph - 0.16 in Rain Light Rain
6:15 AM 37.4 °F 30.3 °F 35.6 °F 93% 29.84 in 3.0 mi East 10.4 mph - 0.06 in Rain Light Rain
6:35 AM 37.4 °F 29.3 °F 35.6 °F 93% 29.84 in 2.5 mi East 12.7 mph - 0.12 in   Overcast
7:15 AM 37.4 °F 29.8 °F 35.6 °F 93% 29.83 in 5.0 mi East 11.5 mph 17.3 mph 0.02 in Rain Light Rain
7:35 AM 37.4 °F 31.4 °F 35.6 °F 93% 29.85 in 5.0 mi East 8.1 mph - 0.04 in Rain Light Rain
7:55 AM 37.4 °F 31.4 °F 35.6 °F 93% 29.86 in 4.0 mi ENE 8.1 mph - 0.07 in Rain Rain
8:15 AM 37.4 °F 32.8 °F 35.6 °F 93% 29.85 in 5.0 mi ENE 5.8 mph - 0.01 in Rain Rain
8:35 AM 37.4 °F 30.8 °F 33.8 °F 87% 29.85 in 5.0 mi ENE 9.2 mph - 0.02 in   Light Drizzle
8:55 AM 37.4 °F 32.8 °F 35.6 °F 93% 29.85 in 4.0 mi ENE 5.8 mph - 0.02 in   Overcast
9:15 AM 37.4 °F 32.1 °F 33.8 °F 87% 29.86 in 2.0 mi East 6.9 mph - N/A Rain Light Rain
9:35 AM 37.4 °F 32.1 °F 33.8 °F 87% 29.86 in 1.8 mi ENE 6.9 mph - N/A   Overcast
9:55 AM 37.4 °F 32.1 °F 33.8 °F 87% 29.86 in 1.2 mi ENE 6.9 mph - N/A   Overcast
10:15 AM 37.4 °F 30.8 °F 35.6 °F 93% 29.85 in 1.5 mi ENE 9.2 mph - N/A   Overcast
10:35 AM 37.4 °F 30.8 °F 35.6 °F 93% 29.85 in 2.0 mi East 9.2 mph - N/A   Overcast
10:55 AM 37.4 °F 30.3 °F 35.6 °F 93% 29.85 in 3.0 mi ENE 10.4 mph - N/A   Overcast
11:15 AM 37.4 °F 30.8 °F 35.6 °F 93% 29.86 in 7.0 mi ENE 9.2 mph - N/A   Overcast
11:35 AM 37.4 °F 30.8 °F 35.6 °F 93% 29.87 in 10.0 mi East 9.2 mph - N/A   Overcast
11:55 AM 37.4 °F 32.8 °F 35.6 °F 93% 29.86 in 10.0 mi ENE 5.8 mph - N/A   Overcast
12:15 PM 37.4 °F 32.1 °F 35.6 °F 93% 29.86 in 2.5 mi ENE 6.9 mph - N/A   Overcast
12:35 PM 37.4 °F 32.8 °F 35.6 °F 93% 29.85 in 2.5 mi ENE 5.8 mph - N/A   Overcast
12:55 PM 37.4 °F 33.8 °F 35.6 °F 93% 29.86 in 4.0 mi ENE 4.6 mph - N/A   Overcast
1:15 PM 37.4 °F 32.8 °F 35.6 °F 93% 29.86 in 3.0 mi NE 5.8 mph - N/A   Overcast
1:35 PM 37.4 °F 32.8 °F 35.6 °F 93% 29.86 in 3.0 mi NE 5.8 mph - N/A   Overcast
1:55 PM 39.2 °F 35.9 °F 35.6 °F 87% 29.86 in 4.0 mi ENE 4.6 mph - N/A   Overcast
2:15 PM 39.2 °F 35.0 °F 35.6 °F 87% 29.85 in 3.0 mi East 5.8 mph - N/A   Overcast
2:35 PM 39.2 °F 35.0 °F 35.6 °F 87% 29.85 in 5.0 mi NE 5.8 mph - N/A   Overcast
2:55 PM 37.4 °F 32.1 °F 35.6 °F 93% 29.86 in 7.0 mi ENE 6.9 mph - N/A   Overcast
3:15 PM 39.2 °F 33.6 °F 35.6 °F 87% 29.86 in 7.0 mi NE 8.1 mph - N/A   Overcast
3:35 PM 39.2 °F 35.9 °F 35.6 °F 87% 29.87 in 10.0 mi NE 4.6 mph - N/A   Overcast
3:55 PM 39.2 °F 35.0 °F 35.6 °F 87% 29.87 in 10.0 mi NE 5.8 mph - N/A   Overcast
4:15 PM 39.2 °F 35.0 °F 35.6 °F 87% 29.88 in 10.0 mi NE 5.8 mph - N/A   Overcast
4:35 PM 37.4 °F 32.8 °F 35.6 °F 93% 29.89 in 10.0 mi NE 5.8 mph - N/A   Overcast
4:55 PM 37.4 °F 32.8 °F 35.6 °F 93% 29.89 in 10.0 mi NE 5.8 mph - N/A   Overcast
5:35 PM 37.4 °F 34.9 °F 35.6 °F 93% 29.90 in 10.0 mi ENE 3.5 mph - N/A   Overcast
5:55 PM 37.4 °F 32.8 °F 35.6 °F 93% 29.91 in 10.0 mi ENE 5.8 mph - N/A   Overcast
6:15 PM 37.4 °F 33.8 °F 35.6 °F 93% 29.92 in 10.0 mi NE 4.6 mph - N/A   Overcast
6:35 PM 37.4 °F 33.8 °F 35.6 °F 93% 29.93 in 10.0 mi East 4.6 mph - N/A   Overcast
6:55 PM 37.4 °F 33.8 °F 33.8 °F 87% 29.92 in 7.0 mi ENE 4.6 mph - N/A   Overcast
7:35 PM 37.4 °F 33.8 °F 33.8 °F 87% 29.92 in 10.0 mi ENE 4.6 mph - N/A   Overcast
7:55 PM 37.4 °F 32.8 °F 33.8 °F 87% 29.93 in 7.0 mi NNE 5.8 mph - N/A   Overcast
8:15 PM 37.4 °F 34.9 °F 33.8 °F 87% 29.93 in 7.0 mi NE 3.5 mph - N/A   Overcast
8:35 PM 37.4 °F 33.8 °F 33.8 °F 87% 29.94 in 7.0 mi NE 4.6 mph - N/A   Overcast
9:15 PM 37.4 °F 32.1 °F 33.8 °F 87% 29.94 in 7.0 mi NNE 6.9 mph - N/A   Overcast
9:35 PM 37.4 °F 33.8 °F 33.8 °F 87% 29.95 in 7.0 mi ENE 4.6 mph - N/A   Overcast
9:55 PM 37.4 °F 33.8 °F 33.8 °F 87% 29.96 in 7.0 mi NE 4.6 mph - N/A   Overcast
10:15 PM 37.4 °F 33.8 °F 33.8 °F 87% 29.96 in 7.0 mi ENE 4.6 mph - N/A   Overcast
10:35 PM 37.4 °F 34.9 °F 33.8 °F 87% 29.97 in 7.0 mi ENE 3.5 mph - N/A   Overcast
10:55 PM 37.4 °F 33.8 °F 33.8 °F 87% 29.97 in 7.0 mi ENE 4.6 mph - N/A   Overcast
11:35 PM 37.4 °F 34.9 °F 33.8 °F 87% 29.96 in 5.0 mi ENE 3.5 mph - N/A   Overcast
11:55 PM 37.4 °F 34.9 °F 33.8 °F 87% 29.97 in 5.0 mi East 3.5 mph - N/A   Overcast